TimeCDT,TemperatureF,Dew PointF,Humidity,Sea Level PressureIn,VisibilityMPH,Wind Direction,Wind SpeedMPH,Gust SpeedMPH,PrecipitationIn,Events,Conditions,WindDirDegrees,DateUTC
12:13 AM,62.6,62.6,100,29.85,0.8,South,9.2,-,N/A,,Overcast,170,2013-09-18 05:13:00
12:33 AM,62.6,62.6,100,29.85,0.5,South,10.4,-,N/A,Fog,Fog,190,2013-09-18 05:33:00
12:53 AM,62.6,62.6,100,29.84,0.5,South,11.5,16.1,N/A,Fog,Fog,180,2013-09-18 05:53:00
1:14 AM,64.4,62.6,94,29.84,1.0,South,10.4,-,N/A,,Overcast,180,2013-09-18 06:14:00
1:33 AM,64.4,62.6,94,29.83,1.5,South,11.5,-,N/A,,Overcast,190,2013-09-18 06:33:00
1:53 AM,64.4,62.6,94,29.82,1.8,South,11.5,17.3,N/A,,Overcast,190,2013-09-18 06:53:00
2:14 AM,64.4,64.4,100,29.82,1.8,South,10.4,-,N/A,,Overcast,190,2013-09-18 07:14:00
2:33 AM,66.2,64.4,94,29.81,2.0,South,13.8,19.6,N/A,,Overcast,190,2013-09-18 07:33:00
2:53 AM,66.2,64.4,94,29.81,2.0,SSW,12.7,20.7,N/A,,Overcast,200,2013-09-18 07:53:00
3:14 AM,66.2,66.2,100,29.80,2.5,SSW,15.0,19.6,N/A,,Overcast,200,2013-09-18 08:14:00
3:33 AM,66.2,66.2,100,29.79,3.0,South,12.7,21.9,N/A,,Overcast,190,2013-09-18 08:33:00
3:53 AM,66.2,66.2,100,29.78,3.0,South,12.7,-,N/A,,Overcast,190,2013-09-18 08:53:00
4:13 AM,68.0,66.2,94,29.78,3.0,SSW,12.7,-,N/A,,Overcast,200,2013-09-18 09:13:00
4:33 AM,68.0,66.2,94,29.78,4.0,SSW,11.5,-,N/A,,Overcast,200,2013-09-18 09:33:00
4:53 AM,68.0,66.2,94,29.78,4.0,SSW,9.2,-,N/A,,Overcast,200,2013-09-18 09:53:00
5:13 AM,68.0,66.2,94,29.77,4.0,SSW,11.5,-,N/A,,Overcast,200,2013-09-18 10:13:00
5:33 AM,69.8,66.2,88,29.76,4.0,SSW,9.2,16.1,N/A,,Overcast,210,2013-09-18 10:33:00
5:53 AM,68.0,66.2,94,29.76,4.0,SSW,9.2,-,N/A,,Overcast,200,2013-09-18 10:53:00
6:13 AM,69.8,66.2,88,29.76,5.0,SSW,10.4,-,N/A,,Overcast,200,2013-09-18 11:13:00
6:34 AM,69.8,66.2,88,29.76,4.0,SSW,9.2,16.1,N/A,,Overcast,200,2013-09-18 11:34:00
6:53 AM,69.8,66.2,88,29.76,4.0,SSW,9.2,-,N/A,,Overcast,200,2013-09-18 11:53:00
7:13 AM,69.8,66.2,88,29.76,4.0,South,10.4,16.1,N/A,,Overcast,190,2013-09-18 12:13:00
7:34 AM,69.8,66.2,88,29.76,3.0,South,9.2,17.3,N/A,,Overcast,190,2013-09-18 12:34:00
7:53 AM,69.8,66.2,88,29.77,4.0,South,11.5,17.3,N/A,,Overcast,190,2013-09-18 12:53:00
8:13 AM,69.8,66.2,88,29.77,4.0,South,12.7,-,N/A,,Overcast,190,2013-09-18 13:13:00
8:34 AM,69.8,66.2,88,29.77,4.0,South,11.5,16.1,N/A,,Overcast,190,2013-09-18 13:34:00
8:53 AM,69.8,66.2,88,29.77,4.0,South,11.5,-,N/A,,Overcast,190,2013-09-18 13:53:00
9:13 AM,69.8,66.2,88,29.77,4.0,SSW,11.5,16.1,N/A,,Overcast,200,2013-09-18 14:13:00
9:33 AM,69.8,66.2,88,29.78,5.0,SSW,9.2,-,N/A,,Overcast,200,2013-09-18 14:33:00
9:53 AM,69.8,66.2,88,29.77,5.0,South,10.4,-,N/A,,Overcast,190,2013-09-18 14:53:00
10:13 AM,69.8,66.2,88,29.76,5.0,South,11.5,16.1,N/A,,Overcast,190,2013-09-18 15:13:00
10:33 AM,71.6,66.2,83,29.76,7.0,South,10.4,-,N/A,,Overcast,190,2013-09-18 15:33:00
10:53 AM,71.6,66.2,83,29.75,7.0,South,10.4,-,N/A,,Overcast,190,2013-09-18 15:53:00
11:13 AM,71.6,66.2,83,29.74,7.0,SSW,12.7,16.1,N/A,,Overcast,200,2013-09-18 16:13:00
11:33 AM,73.4,66.2,78,29.74,10.0,South,11.5,18.4,N/A,,Overcast,180,2013-09-18 16:33:00
11:53 AM,75.2,66.2,73,29.73,10.0,South,13.8,19.6,N/A,,Overcast,190,2013-09-18 16:53:00
12:13 PM,75.2,66.2,73,29.73,10.0,South,11.5,-,N/A,,Mostly Cloudy,190,2013-09-18 17:13:00
12:33 PM,77.0,68.0,74,29.73,10.0,South,15.0,-,N/A,,Scattered Clouds,190,2013-09-18 17:33:00
12:53 PM,78.8,68.0,69,29.72,10.0,South,11.5,18.4,N/A,,Clear,190,2013-09-18 17:53:00
1:13 PM,78.8,68.0,69,29.72,10.0,South,10.4,17.3,N/A,,Clear,180,2013-09-18 18:13:00
1:33 PM,80.6,68.0,65,29.71,10.0,South,11.5,-,N/A,,Clear,180,2013-09-18 18:33:00
1:53 PM,80.6,68.0,65,29.70,10.0,South,13.8,-,N/A,,Clear,170,2013-09-18 18:53:00
2:13 PM,82.4,68.0,62,29.69,10.0,South,13.8,21.9,N/A,,Clear,180,2013-09-18 19:13:00
2:34 PM,84.2,68.0,58,29.69,10.0,South,17.3,20.7,N/A,,Clear,180,2013-09-18 19:34:00
2:53 PM,84.2,68.0,58,29.69,10.0,South,13.8,19.6,N/A,,Clear,180,2013-09-18 19:53:00
3:13 PM,84.2,68.0,58,29.68,10.0,South,16.1,20.7,N/A,,Clear,190,2013-09-18 20:13:00
3:34 PM,84.2,68.0,58,29.68,10.0,South,13.8,-,N/A,,Clear,190,2013-09-18 20:34:00
3:53 PM,84.2,66.2,55,29.68,10.0,SSW,16.1,20.7,N/A,,Clear,200,2013-09-18 20:53:00
4:13 PM,86.0,68.0,55,29.68,10.0,SSW,16.1,23.0,N/A,,Clear,210,2013-09-18 21:13:00
4:34 PM,84.2,66.2,55,29.68,10.0,SSW,18.4,-,N/A,,Clear,210,2013-09-18 21:34:00
4:53 PM,84.2,66.2,55,29.67,10.0,SSW,17.3,21.9,N/A,,Clear,200,2013-09-18 21:53:00
5:13 PM,84.2,68.0,58,29.68,10.0,SSW,15.0,20.7,N/A,,Clear,200,2013-09-18 22:13:00
5:33 PM,84.2,68.0,58,29.68,10.0,SSW,12.7,23.0,N/A,,Clear,200,2013-09-18 22:33:00
5:53 PM,84.2,68.0,58,29.68,10.0,South,12.7,19.6,N/A,,Clear,190,2013-09-18 22:53:00
6:13 PM,82.4,68.0,62,29.68,10.0,South,11.5,-,N/A,,Clear,190,2013-09-18 23:13:00
6:33 PM,82.4,69.8,66,29.68,10.0,South,11.5,-,N/A,,Clear,180,2013-09-18 23:33:00
6:53 PM,80.6,69.8,70,29.67,10.0,South,11.5,-,N/A,,Clear,180,2013-09-18 23:53:00
7:13 PM,80.6,69.8,70,29.67,10.0,South,10.4,-,N/A,,Clear,180,2013-09-19 00:13:00
7:33 PM,78.8,69.8,74,29.67,10.0,South,8.1,-,N/A,,Clear,170,2013-09-19 00:33:00
7:53 PM,77.0,69.8,78,29.66,10.0,South,8.1,-,N/A,,Clear,170,2013-09-19 00:53:00
8:13 PM,77.0,69.8,78,29.67,10.0,South,8.1,-,N/A,,Clear,170,2013-09-19 01:13:00
8:33 PM,75.2,69.8,83,29.67,10.0,South,8.1,-,N/A,,Clear,170,2013-09-19 01:33:00
8:53 PM,75.2,68.0,78,29.68,10.0,South,8.1,-,N/A,,Clear,170,2013-09-19 01:53:00
9:13 PM,75.2,68.0,78,29.67,10.0,South,9.2,-,N/A,,Clear,170,2013-09-19 02:13:00
9:33 PM,75.2,68.0,78,29.66,10.0,South,9.2,-,N/A,,Clear,170,2013-09-19 02:33:00
9:53 PM,73.4,68.0,83,29.66,10.0,South,9.2,-,N/A,,Clear,170,2013-09-19 02:53:00
10:13 PM,73.4,68.0,83,29.66,10.0,South,11.5,-,N/A,,Clear,170,2013-09-19 03:13:00
10:33 PM,73.4,68.0,83,29.67,10.0,South,10.4,-,N/A,,Clear,170,2013-09-19 03:33:00
10:54 PM,73.4,66.2,78,29.67,10.0,South,9.2,-,N/A,,Clear,180,2013-09-19 03:54:00
11:13 PM,73.4,66.2,78,29.67,10.0,South,9.2,-,N/A,,Clear,170,2013-09-19 04:13:00
11:33 PM,73.4,66.2,78,29.67,10.0,South,6.9,-,N/A,,Clear,180,2013-09-19 04:33:00
11:54 PM,73.4,66.2,78,29.67,10.0,South,8.1,-,N/A,,Clear,180,2013-09-19 04:54:00